User: anonymous   Login
Location: Newark
(13.8625°N, 100.5144°E)
Time: 05:17:04
(UTC+00:00)
Language:

RS-44 - Orbit

View from above orbital plane
View from above orbital plane
View from above satellite
View from above satellite

Ground track
Ground track

The orbit data is extracted from the following two-line orbital elements,

1 44909U 19096E   21209.75104227  .00000010  00000-0 -17293-5 0  9992
2 44909  82.5200  85.3750 0217515 356.8718   3.1008 12.79710947 74147
Epoch (UTC): 28 July 2021 18:01:30
Eccentricity: 0.0217515
inclination: 82.5200°
perigee height: 1174 km
apogee height: 1510 km
right ascension of ascending node: 85.3750°
argument of perigee: 356.8718°
revolutions per day: 12.79710947
mean anomaly at epoch: 3.1008°
orbit number at epoch: 7414

The dashed part of the orbit path shows where the satellite is in the earth's shadow,  

DLR